Location: Unspecified
(48.7971°N, 123.6320°W)
Time: 19:56:04
(UTC-07:00)

Okean 3 - Pass Details

Date: 30 June 2019
Orbit: 577 x 601 km, 82.5° (Epoch: 19 July)

Event Time Altitude Azimuth Distance (km) Brightness Sun altitude
Rises 03:29:35 0° 357° (N) 2,863 8.0 -12.3°
Reaches altitude 10° 03:31:58 10° 6° (N) 1,953 7.2 -12.1°
Maximum altitude 03:35:57 36° 73° (ENE) 961 5.0 -11.7°
Drops below altitude 10° 03:39:54 10° 141° (SE) 1,929 5.9 -11.4°
Sets 03:42:14 0° 150° (SSE) 2,822 6.7 -11.2°
